EDT,Max TemperatureF,Mean TemperatureF,Min TemperatureF,Max Dew PointF,MeanDew PointF,Min DewpointF,Max Humidity, Mean Humidity, Min Humidity, Max Sea Level PressureIn, Mean Sea Level PressureIn, Min Sea Level PressureIn, Max VisibilityMiles, Mean VisibilityMiles, Min VisibilityMiles, Max Wind SpeedMPH, Mean Wind SpeedMPH, Max Gust SpeedMPH,PrecipitationIn, CloudCover, Events, WindDirDegrees
2011-10-1,69,61,53,55,42,32,82,54,25,30.01,29.88,29.80,10,10,10,16,9,24,0.00,0,,324
2011-10-2,68,56,44,52,43,39,93,68,35,30.06,30.02,29.98,10,10,10,10,4,20,0.00,1,,286
2011-10-3,73,58,44,50,39,30,93,56,23,30.15,30.10,30.06,10,10,10,12,2,,0.00,0,,304
2011-10-4,73,58,44,54,45,43,93,64,35,30.25,30.19,30.15,10,10,10,10,2,21,0.00,0,,352
2011-10-5,77,64,50,57,49,46,94,68,34,30.27,30.22,30.17,10,10,7,7,1,,0.00,0,,359
2011-10-6,77,64,50,57,51,46,94,68,34,30.29,30.24,30.21,10,10,10,10,3,16,0.00,0,,57
2011-10-7,77,68,59,59,52,46,82,62,34,30.36,30.32,30.28,10,10,10,17,9,22,0.00,1,Thunderstorm,37
2011-10-8,78,68,59,61,52,41,88,60,28,30.41,30.36,30.32,10,10,10,15,10,21,0.00,3,,37
2011-10-9,77,68,60,64,60,55,88,75,57,30.30,30.24,30.16,10,10,7,22,13,32,0.00,5,Rain,41
2011-10-10,71,68,64,66,64,61,88,84,78,30.14,30.05,29.98,10,9,3,20,14,28,0.59,8,Rain,51
2011-10-11,75,70,64,70,65,61,94,86,73,29.95,29.88,29.84,10,8,4,18,11,31,0.55,8,Rain,46
2011-10-12,82,74,66,72,68,64,94,81,62,29.87,29.81,29.76,10,8,0,12,3,,0.00,4,Fog-Thunderstorm,177
2011-10-13,80,73,66,68,65,59,94,78,48,29.80,29.73,29.66,10,7,0,15,4,20,0.00,5,Fog-Thunderstorm,223
2011-10-14,77,68,59,61,55,45,94,70,32,29.85,29.75,29.69,10,10,7,15,8,24,0.12,2,Rain,254
2011-10-15,82,66,51,50,46,41,82,56,24,30.03,29.98,29.93,10,10,10,16,7,23,0.00,0,,254
2011-10-16,75,60,46,54,45,36,93,57,25,30.18,30.11,30.06,10,10,10,8,4,,0.00,0,,117
2011-10-17,82,66,50,59,53,46,94,69,30,30.07,29.99,29.91,10,10,10,12,3,16,0.00,0,,223
2011-10-18,78,66,55,70,64,54,100,83,61,29.92,29.81,29.64,10,7,0,15,3,22,0.77,6,Fog-Rain,118
2011-10-19,82,73,62,72,67,52,94,79,48,29.61,29.45,29.38,10,9,5,22,8,31,0.17,6,Rain,209
2011-10-20,62,54,46,43,39,37,76,57,39,29.96,29.85,29.69,10,10,10,18,11,26,0.00,1,,246
2011-10-21,66,54,41,45,39,34,93,66,30,30.12,30.07,30.03,10,10,10,9,4,,0.00,0,,257
2011-10-22,68,54,39,50,43,36,93,65,37,30.13,30.09,30.06,10,10,10,7,2,,0.00,4,,350
2011-10-23,71,58,44,54,49,41,94,67,40,30.14,30.09,30.06,10,10,4,12,3,,0.00,2,,27
2011-10-24,71,60,50,54,49,45,94,68,38,30.13,30.08,30.04,10,10,10,10,3,,0.00,1,,340
2011-10-25,71,60,48,52,46,39,88,63,31,30.25,30.20,30.13,10,10,10,14,5,20,0.00,0,,43
2011-10-26,77,59,41,54,46,37,93,69,29,30.21,30.11,30.01,10,10,10,9,2,,0.00,0,,232
2011-10-27,78,66,53,57,52,46,94,62,32,30.00,29.92,29.85,10,10,10,18,5,23,0.00,1,,246
2011-10-28,68,60,51,59,54,48,94,82,68,30.03,29.98,29.92,10,10,5,17,5,24,0.00,5,,47
2011-10-29,60,53,46,48,44,37,100,74,45,30.01,29.93,29.88,10,8,1,17,9,25,0.02,5,Rain,334
2011-10-30,60,46,32,41,33,30,100,62,31,30.32,30.25,30.16,10,10,10,14,5,18,0.00,0,,37
2011-10-31,62,52,41,54,44,36,87,74,67,30.31,30.21,30.11,10,10,10,14,7,18,0.00,5,,23